Weather History for Point Salines, Grenada

Change the Weather History Date:

Monday, October 24, 2011

  Actual Average Record
Temperature  
Mean Temperature 76 °F -  
Max Temperature 79 °F 84 °F 89 °F (1997)
Min Temperature 74 °F 75 °F 75 °F (1996)
Cooling Degree Days 12    
Growing Degree Days 26 (Base 50)    
Moisture  
Dew Point 77 °F    
Average Humidity 97    
Maximum Humidity 100    
Minimum Humidity 93    
Precipitation  
Precipitation 0.75 in - - ()
Sea Level Pressure  
Sea Level Pressure 29.83 in    
Wind  
Wind Speed 3 mph ()    
Max Wind Speed 17 mph    
Max Gust Speed -    
Visibility 6.2 miles    
Events Rain , Thunderstorm    
Averages and records for this station are not official NWS values.
T = Trace of Precipitation, MM = Missing Value Source: Averaged Metar Reports

Daily Weather History Graph

Daily Weather History Graph

Search for Another Location

Airport:

Trip Planner

Search our weather history database for the weather conditions in past years. The results will help you decide how hot, cold, wet, or windy it might be!

Date:

Astronomy

Oct. 24, 2011 Rise Set
Actual Time 5:57 AM AST 5:44 PM AST
Civil Twilight 5:36 AM AST 6:06 PM AST
Nautical Twilight 5:11 AM AST 6:31 PM AST
Astronomical Twilight 4:46 AM AST 6:55 PM AST
Moon 3:33 AM AST (10/24) 3:51 PM AST (10/24)
Length of Visible Light 12h 29m
Length of Day
11h 46m
Waning Crescent, 7% of the Moon is Illuminated
Oct 24
Waning Crescent
Oct 26
New
Nov 2
First Quarter
Nov 10
Full
Nov 18
Last Quarter

Hourly Weather History & Observations

Time (AST) Temp. Dew Point Humidity Pressure Visibility Wind Dir Wind Speed Gust Speed Precip Events Conditions
12:00 AM 78.8 °F 77.0 °F 94% 29.86 in 6.2 mi Calm Calm - N/A   Mostly Cloudy
1:00 AM 78.8 °F 77.0 °F 94% 29.83 in 6.2 mi Calm Calm - N/A   Mostly Cloudy
2:00 AM 79 °F 77 °F 93% 29.82 in 7 mi East 6.9 mph - -   Partly Cloudy
2:00 AM 78.8 °F 77.0 °F 94% 29.80 in 6.2 mi East 6.9 mph - N/A   Scattered Clouds
3:00 AM 78.8 °F 77.0 °F 94% 29.80 in 6.2 mi East 6.9 mph - N/A   Scattered Clouds
4:00 AM 78.8 °F 77.0 °F 94% 29.80 in 6.2 mi East 9.2 mph - N/A Rain Light Rain Showers
5:00 AM 79 °F 78 °F 94% 29.81 in 7 mi 2.3 mph - -   Partly Cloudy
5:00 AM 78.8 °F 77.0 °F 94% 29.80 in 6.2 mi Variable 2.3 mph - N/A   Scattered Clouds
6:00 AM 78.8 °F 77.0 °F 94% 29.83 in 6.2 mi Variable 2.3 mph - N/A   Mostly Cloudy
7:00 AM 78.8 °F 77.0 °F 94% 29.86 in 2.5 mi SE 10.4 mph - N/A Rain Rain Showers
7:28 AM 77.0 °F 77.0 °F 100% 29.86 in 0.6 mi East 12.7 mph - N/A Rain Heavy Rain Showers
7:34 AM 77.0 °F 77.0 °F 100% 29.86 in 0.6 mi ESE 10.4 mph - N/A Rain , Thunderstorm Heavy Thunderstorms and Rain
8:00 AM 76 °F 76 °F 100% 29.88 in 3 mi SSE 17.3 mph - - Rain , Thunderstorm Thunderstorms and Rain
8:00 AM 77.0 °F 77.0 °F 100% 29.86 in 3.1 mi SSE 5.8 mph - N/A Rain , Thunderstorm Thunderstorms and Rain
9:00 AM 77.0 °F 77.0 °F 100% 29.89 in 6.2 mi SSE 5.8 mph - N/A Thunderstorm Thunderstorm
10:00 AM 77.0 °F 77.0 °F 100% 29.89 in 6.2 mi Calm Calm - N/A Rain , Thunderstorm Light Thunderstorms and Rain
11:00 AM 78 °F 78 °F 100% 29.88 in 12 mi Calm Calm - - Rain Light Rain Showers
11:00 AM 78.8 °F 78.8 °F 100% 29.86 in 6.2 mi Calm Calm - N/A Rain Light Rain Showers
12:00 PM 78.8 °F 77.0 °F 94% 29.86 in 6.2 mi Calm Calm - N/A Thunderstorm Thunderstorm
1:00 PM 78.8 °F 78.8 °F 100% 29.83 in 6.2 mi Calm Calm - N/A Rain Light Rain Showers
2:00 PM 78 °F 78 °F 100%  in 9 mi Calm Calm - -  
2:00 PM 78.8 °F 78.8 °F 100% 29.80 in 6.2 mi Calm Calm - N/A Rain Light Rain
3:00 PM 78.8 °F 77.0 °F 94% 29.77 in 6.2 mi Calm Calm - N/A Rain Light Rain
4:00 PM 78.8 °F 77.0 °F 94% 29.77 in 6.2 mi Calm Calm - N/A   Mostly Cloudy
5:00 PM 78.8 °F 77.0 °F 94% 29.77 in 6.2 mi Calm Calm - N/A   Mostly Cloudy
7:00 PM 77.0 °F 77.0 °F 100% 29.83 in 6.2 mi Calm Calm - N/A   Mostly Cloudy
8:00 PM 77.0 °F 75.2 °F 94% 29.83 in 6.2 mi Calm Calm - N/A   Scattered Clouds
11:00 PM 75 °F 75 °F 100% 29.85 in 16 mi Calm Calm - -   Scattered Clouds
11:00 PM 75.2 °F 75.2 °F 100% 29.83 in 6.2 mi Calm Calm - N/A   Scattered Clouds